Temp
53 55 54 54 56 58 53 55 45 52 55 58 59 61 65 65 67 68 66 65 66 64 62 62 60 59 59 56 54 53 51 49 48 48 49 48 44 44 43 42 43 42 41 41
39 56 56 54 55 56 56 58 58 59 55 62 65 67 64 67 67 65 65 68 67 65 63 61 60 58 57 54 52 53 51 50 50 50 49 47 43 42 41 41 41 40 39 39
41 52 52 46 53 56 56 57 60 51 57 62 61 62 61 61 63 63 64 65 66 64 63 62 60 59 55 53 52 52 50 51 50 51 49 44 44 42 40 38 38 37 37 38
38 46 33 51 65 64 60 61 61 61 61 60 59 60 60 60 59 60 62 62 63 63 62 62 59 56 54 53 52 50 50 51 50 49 47 44 43 41 39 37 37 35 35 37
36 38 47 55 60 58 54 53 61 60 60 60 61 57 57 62 62 60 60 60 60 61 59 58 58 55 55 51 51 50 50 50 50 48 46 44 43 39 37 37 36 35 37 36
36 34 34 50 62 65 61 43 60 58 56 57 56 42 49 60 61 60 60 61 62 61 58 57 56 56 53 50 50 50 50 50 49 47 47 44 41 38 37 36 37 36 36 35
31 30 40 57 61 62 40 42 56 58 58 57 51 51 57 59 60 62 62 62 63 60 58 57 56 55 52 51 50 53 51 50 49 47 46 44 40 38 37 36 35 33 34 33
36 31 33 59 58 50 51 56 59 58 58 57 58 60 61 62 61 62 62 63 64 61 58 55 57 55 52 51 54 54 52 51 49 46 48 45 40 37 36 34 32 31 31 30
43 41 56 60 57 59 60 59 59 60 60 60 60 59 60 61 62 63 61 61 62 60 59 56 56 56 53 53 54 53 51 49 48 44 45 43 40 35 35 34 32 31 30 29
48 54 56 59 60 62 63 62 63 63 62 62 58 58 58 61 61 62 62 62 61 59 58 58 58 58 58 56 56 54 49 46 43 44 43 42 42 38 35 34 31 32 31 29
47 54 56 60 61 61 62 63 64 63 62 61 59 58 58 60 60 61 61 62 62 60 60 60 60 59 58 56 57 54 51 47 46 46 44 42 40 38 35 35 36 34 32 31
41 54 52 55 60 64 62 60 61 61 60 60 59 59 59 59 60 60 60 60 59 59 58 60 60 61 58 58 58 52 49 47 45 44 40 38 36 29 34 33 34 35 34 31
54 59 58 60 62 64 61 62 62 61 60 58 60 60 59 59 60 55 59 59 59 58 58 58 57 58 56 53 51 52 50 47 44 40 38 37 35 33 28 28 32 32 33 33
60 60 56 60 57 62 63 63 61 61 61 59 58 58 56 56 56 56 56 56 58 58 57 57 56 53 53 51 50 47 46 41 43 40 37 36 36 34 31 28 26 26 30 31
60 60 59 61 61 61 61 60 58 56 56 56 56 54 54 54 54 54 55 57 56 53 52 53 53 53 52 46 44 44 40 39 37 35 35 35 34 32 32 31 29 29 28 27
60 60 59 58 59 58 56 55 53 53 53 53 52 53 53 53 53 53 53 51 47 44 47 43 44 46 46 46 43 37 33 32 33 34 32 33 33 33 31 30 29 29 28 26
53 51 53 52 53 53 53 54 53 52 52 52 51 51 51 49 47 47 47 47 45 41 42 41 41 42 42 41 38 34 33 31 31 32 33 33 32 31 30 30 29 28 28 26
57 57 55 54 52 51 52 52 53 51 51 51 51 47 39 39 41 40 39 36 35 35 35 36 35 32 32 37 36 33 32 31 32 32 32 32 31 31 30 29 28 28 27 27
58 56 55 56 54 52 51 51 52 51 49 47 42 39 37 33 35 35 35 35 34 34 34 34 33 29 35 29 32 32 32 32 31 31 31 31 30 29 29 28 28 29 27 24
55 55 54 53 53 51 50 51 51 49 44 37 31 28 29 27 34 34 33 33 35 36 35 35 34 33 32 31 28 31 32 31 31 30 30 30 29 29 28 28 29 26 24 21
52 52 51 50 50 50 45 41 36 38 30 33 31 30 30 30 34 34 32 34 34 32 33 30 32 32 31 29 29 30 29 29 29 30 29 29 28 28 28 26 24 22 17 16
51 49 42 41 42 42 40 40 41 34 33 33 33 33 33 32 28 32 34 35 30 27 29 31 32 30 31 27 29 28 28 29 30 29 29 28 28 26 26 25 20 16 17 17
49 47 45 39 40 43 42 41 34 35 34 33 33 33 33 31 31 30 30 33 32 29 31 29 28 25 26 27 28 29 30 30 28 28 28 28 27 23 21 20 15 16 15 16
49 48 46 44 42 43 41 41 38 36 33 33 33 33 31 29 31 33 33 26 24 25 26 26 24 24 26 27 27 28 27 28 28 27 26 24 23 20 17 13 14 17 17 15
47 45 43 41 41 39 42 42 40 38 35 34 35 32 31 32 30 31 28 27 27 27 25 23 23 25 31 26 30 29 27 28 26 24 23 21 17 13 13 15 16 17 13 12
46 42 42 43 40 40 40 40 38 38 36 34 34 30 30 31 30 29 28 26 28 26 24 21 21 28 27 27 27 27 27 26 23 21 19 17 15 15 15 18 17 14 12 12
44 39 40 40 41 40 39 39 38 36 35 31 31 29 32 28 28 28 26 25 26 25 28 28 23 25 26 27 27 25 23 23 20 19 16 14 15 17 17 16 14 15 18 21
MSLP
1011.53 1011.96 1011.23 1011.28 1010.60 1010.87 1010.07 1011.06 1011.72 1011.64 1011.32 1011.31 1011.06 1011.16 1011.39 1011.73 1011.64 1011.97 1012.34 1012.65 1013.09 1013.92 1014.88 1015.85 1016.90 1017.86 1018.78 1019.83 1020.78 1021.74 1022.88 1023.93 1024.83 1025.48 1025.93 1026.56 1027.06 1027.46 1027.78 1028.19 1028.42 1028.79 1029.12 1029.34
1012.43 1012.12 1011.89 1011.31 1010.57 1010.58 1010.53 1010.96 1011.11 1011.08 1010.97 1010.18 1010.61 1011.21 1011.60 1011.55 1011.65 1011.92 1012.22 1012.47 1013.01 1013.68 1014.32 1015.35 1016.36 1017.37 1018.41 1019.55 1020.53 1021.34 1022.30 1023.27 1024.21 1025.04 1025.66 1026.16 1026.68 1027.17 1027.65 1028.08 1028.35 1028.57 1028.95 1029.23
1012.90 1012.62 1012.45 1011.67 1010.35 1009.92 1009.98 1010.17 1010.11 1010.70 1010.22 1010.14 1010.93 1011.47 1011.71 1012.07 1012.35 1012.67 1012.65 1012.40 1012.49 1013.42 1014.02 1014.85 1015.75 1016.60 1017.79 1018.85 1019.88 1020.79 1021.72 1022.66 1023.55 1024.41 1025.12 1025.76 1026.32 1026.80 1027.26 1027.69 1028.06 1028.28 1028.53 1028.77
1013.02 1013.22 1013.03 1010.28 1009.00 1008.96 1009.28 1009.58 1009.72 1009.91 1009.87 1010.43 1011.10 1011.56 1011.80 1012.08 1012.46 1012.78 1012.89 1013.03 1013.07 1013.13 1013.81 1014.62 1015.42 1016.45 1017.43 1018.42 1019.36 1020.28 1021.22 1021.99 1022.73 1023.54 1024.41 1025.19 1025.73 1026.23 1026.74 1027.17 1027.57 1027.88 1028.16 1028.37
1013.35 1013.41 1011.72 1009.88 1008.65 1008.62 1009.06 1009.33 1009.23 1009.74 1010.41 1010.81 1011.30 1011.90 1012.76 1012.53 1012.62 1012.86 1012.99 1013.17 1013.17 1013.11 1013.56 1014.30 1015.12 1016.09 1017.11 1018.26 1019.07 1019.95 1020.59 1021.18 1021.83 1022.73 1023.60 1024.34 1025.06 1025.64 1026.10 1026.62 1027.08 1027.41 1027.57 1027.92
1013.67 1013.36 1011.88 1009.60 1008.45 1008.24 1008.99 1009.83 1009.42 1009.65 1010.34 1010.86 1011.30 1012.80 1013.32 1012.69 1012.84 1013.03 1013.10 1013.17 1013.17 1013.14 1013.59 1014.31 1015.22 1015.95 1016.93 1017.95 1018.78 1019.28 1019.75 1020.32 1021.09 1021.86 1022.62 1023.43 1024.17 1024.84 1025.36 1025.90 1026.30 1026.75 1027.17 1027.37
1013.34 1013.13 1011.53 1009.30 1008.49 1008.19 1009.67 1010.52 1009.46 1009.80 1010.33 1011.06 1012.02 1012.45 1012.66 1012.62 1012.68 1012.75 1012.79 1012.99 1013.18 1013.47 1013.97 1014.46 1015.13 1015.85 1016.69 1017.40 1017.71 1018.01 1018.92 1019.58 1020.21 1020.91 1021.65 1022.24 1023.16 1024.06 1024.68 1025.32 1025.88 1026.30 1026.59 1026.89
1012.84 1012.59 1011.10 1008.98 1008.76 1008.79 1009.22 1009.40 1009.56 1010.03 1010.48 1011.15 1011.65 1011.91 1012.06 1012.27 1012.41 1012.64 1012.65 1012.70 1012.88 1013.42 1014.09 1014.52 1014.95 1015.52 1016.18 1016.51 1016.57 1017.43 1018.16 1018.82 1019.43 1020.07 1020.83 1021.69 1022.50 1023.31 1024.00 1024.72 1025.53 1025.96 1026.38 1026.59
1010.74 1010.23 1009.11 1008.34 1008.45 1008.51 1008.57 1009.19 1009.60 1009.94 1010.67 1011.02 1011.44 1011.74 1011.91 1012.05 1012.12 1012.14 1012.16 1012.41 1012.37 1012.64 1013.12 1013.73 1014.20 1014.72 1015.49 1015.57 1016.49 1017.32 1017.98 1018.45 1019.07 1019.85 1020.54 1021.34 1022.39 1023.15 1023.72 1024.11 1024.55 1025.33 1025.98 1026.42
1009.30 1008.95 1008.53 1008.19 1008.07 1008.32 1008.51 1008.99 1009.43 1009.79 1010.16 1010.49 1010.98 1011.17 1011.46 1011.84 1012.07 1012.03 1011.83 1011.78 1011.79 1012.06 1012.20 1012.62 1012.95 1013.23 1013.28 1014.10 1014.76 1015.89 1017.01 1018.02 1018.78 1019.43 1020.22 1020.76 1020.97 1021.86 1022.90 1023.65 1024.33 1024.74 1025.34 1025.55
1008.28 1007.80 1007.74 1007.78 1008.04 1008.32 1008.61 1008.82 1009.30 1009.66 1010.02 1010.41 1010.83 1011.24 1011.56 1011.82 1011.92 1011.89 1011.83 1011.66 1011.43 1011.49 1011.59 1011.56 1011.78 1012.36 1012.80 1013.35 1014.11 1015.04 1015.67 1016.58 1018.04 1019.17 1019.92 1020.30 1020.75 1021.31 1021.96 1022.57 1023.07 1023.80 1024.41 1024.79
1007.52 1007.36 1007.58 1007.85 1007.92 1008.02 1008.46 1008.92 1009.54 1010.05 1010.27 1010.40 1010.71 1011.10 1011.34 1011.80 1011.68 1011.88 1011.89 1011.77 1011.64 1011.43 1011.39 1011.39 1011.52 1011.56 1011.83 1012.56 1013.06 1014.09 1015.29 1016.22 1016.53 1017.32 1018.18 1019.19 1020.29 1021.54 1021.94 1022.25 1022.70 1023.27 1023.72 1024.18
1006.20 1006.43 1007.00 1007.48 1007.78 1008.01 1008.56 1008.98 1009.83 1010.28 1010.47 1010.65 1010.81 1011.16 1011.41 1011.65 1011.80 1012.02 1012.02 1011.96 1011.77 1011.66 1011.50 1011.50 1011.55 1011.48 1011.35 1012.22 1012.82 1013.32 1014.01 1014.87 1015.55 1016.38 1017.19 1018.41 1019.62 1020.60 1021.82 1022.90 1023.19 1023.82 1023.73 1023.98
1005.38 1005.80 1006.87 1007.16 1007.72 1008.20 1008.67 1008.99 1009.65 1010.32 1010.81 1011.23 1011.54 1011.81 1012.09 1012.20 1012.20 1012.37 1012.51 1012.41 1012.14 1012.03 1011.90 1011.74 1011.66 1011.62 1011.54 1011.49 1012.06 1012.69 1013.42 1014.02 1014.68 1015.45 1016.55 1017.69 1018.73 1019.84 1020.82 1021.82 1022.82 1023.71 1023.82 1023.88
1005.68 1005.85 1006.58 1006.88 1007.42 1008.22 1008.70 1009.32 1010.05 1011.14 1011.50 1011.78 1012.07 1012.37 1012.51 1012.68 1012.83 1012.84 1012.69 1012.53 1012.57 1012.66 1012.60 1012.49 1012.34 1011.89 1011.62 1011.99 1012.49 1012.79 1013.34 1013.78 1014.25 1015.09 1015.99 1016.95 1018.12 1019.14 1020.09 1021.06 1021.97 1022.86 1023.24 1023.61
1005.65 1006.12 1006.56 1007.06 1007.86 1008.38 1009.14 1009.88 1010.76 1011.48 1011.80 1012.33 1012.55 1012.76 1012.97 1013.21 1013.29 1013.14 1012.99 1013.10 1013.36 1013.49 1013.30 1012.95 1012.56 1012.24 1011.91 1011.78 1012.31 1013.01 1013.64 1014.06 1014.38 1014.95 1015.81 1016.82 1017.75 1018.66 1019.65 1020.68 1021.51 1022.06 1022.60 1022.95
1006.03 1006.70 1007.07 1007.53 1008.35 1008.87 1009.55 1010.16 1011.02 1011.82 1012.18 1012.52 1013.06 1013.42 1013.62 1013.72 1013.72 1013.65 1013.63 1013.74 1013.68 1013.70 1013.60 1013.47 1012.82 1012.21 1011.75 1011.65 1012.02 1012.51 1013.01 1013.59 1014.07 1015.04 1015.81 1016.58 1017.38 1018.19 1019.18 1020.20 1020.89 1021.45 1021.83 1021.99
1005.95 1006.65 1007.14 1007.66 1008.34 1009.02 1009.63 1010.34 1011.10 1011.66 1012.16 1012.82 1013.46 1013.81 1014.16 1014.29 1014.71 1014.54 1014.59 1014.52 1014.37 1014.00 1013.79 1013.42 1012.96 1012.63 1012.05 1011.61 1011.77 1012.43 1013.04 1013.72 1014.43 1015.11 1015.86 1016.62 1017.30 1018.03 1018.77 1019.84 1020.43 1020.95 1021.22 1021.39
1005.91 1006.77 1007.47 1007.97 1008.48 1009.18 1010.08 1010.80 1011.18 1011.81 1012.51 1013.17 1013.77 1014.43 1014.83 1015.09 1015.27 1015.08 1015.12 1015.20 1015.03 1014.66 1013.69 1013.62 1013.47 1013.04 1012.44 1012.17 1012.09 1012.45 1013.10 1013.91 1014.73 1015.45 1016.05 1016.74 1017.49 1018.23 1018.82 1019.51 1020.08 1020.52 1020.69 1021.22
1006.39 1006.72 1007.35 1008.19 1009.01 1009.71 1010.42 1010.89 1011.67 1012.55 1013.34 1013.96 1014.30 1014.68 1015.02 1015.19 1015.17 1015.10 1015.05 1015.16 1015.03 1014.59 1014.01 1013.85 1013.37 1013.09 1013.01 1012.77 1012.63 1012.81 1013.34 1014.09 1014.76 1015.43 1016.11 1016.78 1017.46 1018.04 1018.68 1019.28 1019.73 1019.97 1020.42 1020.84
1006.50 1007.11 1007.86 1008.76 1009.55 1010.14 1010.84 1011.56 1012.25 1012.96 1013.67 1014.34 1014.55 1014.76 1014.94 1015.02 1015.22 1015.07 1014.97 1014.91 1014.34 1014.09 1013.83 1013.69 1013.56 1013.35 1013.26 1013.28 1013.37 1013.52 1013.91 1014.48 1015.11 1015.65 1016.26 1016.84 1017.45 1018.02 1018.53 1019.07 1019.39 1019.84 1020.32 1020.54
1006.21 1007.53 1008.32 1009.02 1010.05 1010.98 1011.58 1011.98 1012.57 1013.21 1013.78 1014.38 1014.78 1014.91 1015.17 1015.20 1015.07 1014.76 1014.47 1014.55 1014.18 1013.92 1013.67 1013.59 1013.73 1013.54 1013.46 1013.67 1013.97 1014.10 1014.45 1014.95 1015.50 1015.96 1016.51 1016.99 1017.46 1017.96 1018.43 1018.89 1019.41 1019.88 1019.90 1020.09
1006.38 1007.71 1008.81 1009.69 1010.36 1011.14 1011.72 1012.08 1012.85 1013.26 1013.59 1013.96 1014.36 1014.67 1014.89 1014.66 1014.54 1014.48 1014.41 1014.18 1014.18 1013.91 1013.77 1013.49 1013.72 1013.67 1013.74 1014.12 1014.34 1014.51 1014.81 1015.34 1015.84 1016.29 1016.74 1017.07 1017.50 1018.00 1018.31 1018.77 1019.18 1019.26 1019.56 1019.78
1007.15 1008.11 1008.99 1009.61 1010.38 1011.15 1011.88 1012.02 1012.16 1012.45 1013.03 1013.53 1013.86 1014.13 1014.41 1014.46 1014.32 1013.95 1013.87 1013.99 1013.91 1014.04 1013.87 1013.77 1014.00 1013.92 1014.21 1014.55 1014.72 1014.95 1015.35 1015.70 1016.09 1016.48 1016.85 1017.18 1017.57 1017.84 1018.18 1018.54 1018.90 1019.00 1019.25 1019.52
1007.50 1008.52 1009.41 1010.16 1010.63 1010.91 1011.16 1011.43 1011.86 1012.16 1012.60 1012.84 1012.85 1013.16 1013.47 1013.65 1013.79 1013.86 1014.00 1014.15 1014.02 1014.27 1014.18 1014.21 1014.22 1014.30 1014.75 1014.87 1015.01 1015.39 1015.65 1015.93 1016.26 1016.67 1017.02 1017.36 1017.70 1017.99 1018.19 1018.39 1018.63 1018.90 1019.10 1019.24
1008.05 1008.84 1009.30 1009.58 1010.00 1010.50 1010.91 1011.15 1011.48 1011.71 1012.15 1012.51 1012.61 1012.78 1013.11 1012.98 1013.13 1013.54 1013.93 1014.27 1014.32 1014.42 1014.48 1014.61 1014.56 1014.73 1015.02 1015.04 1015.26 1015.58 1015.84 1016.15 1016.47 1016.79 1017.09 1017.43 1017.74 1018.00 1018.19 1018.37 1018.57 1018.77 1018.92 1018.95
1008.50 1009.04 1009.52 1009.85 1009.86 1009.97 1010.34 1010.77 1011.16 1011.34 1011.64 1012.10 1012.41 1012.40 1012.82 1012.98 1013.12 1013.50 1014.04 1014.31 1014.45 1014.43 1014.47 1014.70 1014.81 1014.96 1015.13 1015.23 1015.46 1015.76 1016.02 1016.31 1016.65 1016.97 1017.30 1017.58 1017.83 1018.03 1018.18 1018.31 1018.47 1018.64 1018.54 1018.44
Wind_Speed
6 6 2 7 10 9 4 3 6 5 3 11 10 7 5 9 5 7 7 8 13 14 13 15 15 14 14 12 13 12 13 11 10 8 8 8 7 7 7 7 6 6 6 5
1 8 10 3 13 5 3 10 5 8 11 4 8 7 5 5 4 2 1 6 8 11 15 14 14 14 14 13 13 13 13 12 11 10 9 9 7 7 7 7 6 6 6 6
5 1 6 8 18 8 2 8 5 6 8 5 7 8 7 5 7 6 6 5 4 10 14 14 14 15 15 15 14 14 13 11 12 12 11 8 8 7 8 8 6 7 7 7
3 6 6 10 12 9 8 13 5 4 3 9 8 7 7 8 8 7 6 6 7 2 9 11 10 11 13 15 14 14 12 12 12 13 11 9 9 8 7 6 7 6 7 7
6 6 5 6 8 7 5 5 4 6 8 8 8 9 7 7 7 4 5 4 3 6 6 10 14 13 15 13 13 13 13 13 12 13 12 11 11 9 7 7 6 6 5 7
2 5 8 8 9 8 6 4 6 6 7 9 6 5 3 4 3 2 2 4 6 2 5 11 11 14 14 13 13 15 14 13 11 12 13 12 11 9 6 5 6 6 6 6
3 3 7 3 5 8 9 9 4 7 9 8 6 6 5 2 2 6 5 4 5 3 7 10 12 13 13 14 17 14 12 11 11 12 13 12 9 6 6 6 6 6 7 6
3 3 7 6 2 10 8 4 7 7 6 8 8 6 4 4 3 6 7 7 7 6 6 7 11 12 12 15 13 11 13 13 13 12 11 9 10 7 7 7 7 7 6 5
9 8 4 4 5 5 7 7 4 7 8 7 6 3 2 2 6 5 5 8 7 9 10 12 13 14 13 11 9 9 10 12 10 7 9 7 7 7 5 7 7 5 4 4
7 7 6 7 5 7 7 7 7 6 5 6 4 1 3 5 5 5 6 5 6 8 10 12 15 17 18 14 14 13 11 8 8 11 10 10 9 8 8 7 5 5 5 6
3 2 7 7 7 7 7 7 5 4 3 4 3 2 2 2 4 4 5 5 5 4 8 12 14 14 13 12 13 12 13 12 12 9 11 11 8 8 8 6 9 7 7 6
6 7 7 5 7 8 7 3 3 6 5 4 2 3 2 2 2 2 4 4 5 6 6 4 9 14 12 13 13 12 11 10 11 12 11 9 8 3 9 7 10 8 8 5
6 8 8 8 6 6 7 7 6 6 4 3 5 3 2 1 4 4 5 6 5 4 2 3 4 2 7 8 8 13 14 13 9 10 10 10 9 9 7 4 7 6 8 9
8 10 6 7 6 7 7 6 8 6 6 7 4 6 4 4 5 6 6 6 6 7 7 6 2 5 8 9 11 11 10 11 11 10 9 9 9 9 8 8 6 3 8 7
7 8 8 8 8 7 7 6 8 6 5 6 5 5 6 6 5 5 5 6 6 7 7 8 8 7 2 4 7 10 7 6 7 8 8 10 9 9 8 7 7 5 3 4
6 7 8 8 7 6 9 9 8 4 6 4 5 5 4 4 4 5 6 7 5 5 6 7 7 7 6 4 7 4 3 7 7 8 8 9 8 8 7 6 6 6 5 5
5 3 5 4 9 8 9 8 7 4 2 3 2 2 4 5 6 6 6 6 6 6 7 7 8 8 6 5 8 6 6 6 10 7 8 8 9 8 7 6 6 6 6 5
8 6 7 10 9 9 8 7 6 2 1 1 1 2 3 4 5 6 6 7 9 11 7 8 7 7 7 6 7 6 6 7 6 8 7 8 7 7 8 7 6 6 5 4
6 7 9 9 8 8 8 7 4 2 1 2 2 1 1 3 5 5 5 9 9 11 8 7 8 7 7 4 4 5 7 8 7 6 6 8 7 6 6 6 5 7 5 4
7 10 10 9 9 8 7 4 3 3 5 4 2 2 4 4 4 4 4 7 8 9 9 10 7 5 3 3 4 5 8 8 8 7 6 7 7 7 5 6 7 5 5 4
9 9 10 10 8 6 6 6 4 3 1 2 3 4 4 4 5 5 4 6 4 4 4 5 4 3 1 2 4 5 6 6 6 7 7 7 6 6 5 4 4 4 4 3
9 9 9 9 8 5 2 3 3 3 3 5 4 4 5 6 5 4 7 8 3 4 2 1 3 3 3 4 4 5 6 6 6 6 5 5 5 5 5 5 4 3 4 4
8 8 8 8 8 6 3 5 4 6 5 5 4 6 6 4 4 2 3 3 4 3 1 1 1 4 5 4 4 5 5 5 5 5 5 4 4 3 3 4 3 4 3 3
7 8 7 6 6 5 5 5 6 7 5 6 7 7 5 3 3 3 2 2 2 3 2 2 2 5 5 3 3 4 4 4 4 3 3 4 4 3 3 3 3 3 3 3
7 7 7 8 7 5 5 6 4 5 7 7 7 7 7 5 4 1 2 1 4 3 3 3 4 7 4 3 4 3 3 3 3 4 4 3 3 3 3 3 3 3 2 3
6 5 4 6 5 5 5 4 4 5 4 4 3 3 3 3 4 3 2 2 3 4 3 2 2 4 3 4 4 4 4 3 3 3 3 3 3 3 3 2 2 2 3 3
4 5 3 2 3 4 4 5 4 5 5 4 3 4 5 3 4 4 4 2 3 3 3 2 2 2 3 3 3 3 3 3 4 3 3 3 3 3 3 3 3 3 2 2
Wind_Direction
150 199 37 283 336 272 121 317 149 225 271 188 175 170 201 242 219 182 193 192 186 175 171 168 168 163 165 155 152 146 144 152 164 166 167 172 172 169 166 164 169 182 174 184
218 193 192 285 302 295 155 188 212 230 227 176 134 155 181 146 138 136 226 170 198 186 168 166 163 162 157 152 152 148 158 165 165 170 178 180 173 173 165 171 178 180 188 196
166 177 326 245 205 235 173 290 226 243 232 161 103 102 108 84 74 39 360 261 157 171 172 170 170 162 161 156 153 160 161 163 169 179 185 176 175 173 179 182 184 200 203 198
156 116 235 238 192 197 204 204 246 307 232 121 126 116 80 78 79 50 31 24 356 226 170 176 162 153 145 154 157 162 166 173 173 181 182 178 181 185 186 180 191 195 201 205
142 177 267 279 203 148 155 260 226 194 127 113 107 80 42 68 68 42 2 329 292 290 168 154 160 152 150 153 157 166 181 184 180 177 181 182 191 187 185 177 187 195 189 199
114 162 200 234 226 159 104 285 288 125 129 121 101 80 245 121 123 104 356 319 313 266 119 143 152 151 149 160 169 188 188 187 177 177 184 189 186 187 177 175 189 185 202 197
148 179 280 266 78 85 111 226 79 113 118 108 96 162 189 139 188 184 185 236 300 124 152 158 158 155 166 172 193 190 183 178 181 183 187 186 177 169 175 177 172 181 188 200
133 110 262 209 111 145 201 135 119 120 125 119 136 138 158 225 240 208 212 207 186 164 169 159 163 168 177 195 192 179 178 187 190 186 188 179 174 176 172 166 176 190 196 209
163 202 215 133 159 151 115 122 120 116 115 120 126 128 105 271 258 248 243 220 205 183 182 171 172 175 185 203 175 181 185 196 193 172 175 162 171 175 166 178 174 184 184 198
112 226 190 195 149 153 139 135 113 116 107 108 123 61 305 279 267 264 257 258 221 210 194 192 189 188 201 180 175 178 187 180 170 175 176 185 188 176 181 180 180 175 198 202
166 103 105 128 137 144 126 126 134 126 126 118 87 13 230 255 293 289 283 281 285 242 230 211 194 196 197 184 183 194 179 169 180 186 190 200 188 184 179 184 181 193 211 188
210 175 137 193 151 129 122 122 71 88 58 38 39 312 278 330 311 348 357 353 355 357 29 285 202 200 187 192 181 176 181 183 176 186 191 182 172 108 36 144 131 140 170 154
167 154 144 139 114 98 104 99 89 74 55 4 337 318 326 358 29 1 6 356 357 335 331 25 20 153 154 182 185 180 184 195 191 181 183 172 168 167 153 75 112 153 160 154
161 126 126 150 151 113 118 93 76 48 52 70 61 64 62 42 21 18 8 350 352 346 338 323 282 232 227 191 187 190 198 193 183 186 174 168 175 172 163 161 158 195 233 202
152 131 148 129 104 97 97 81 70 62 47 28 56 63 39 18 360 341 336 340 350 1 350 343 329 306 332 201 213 217 201 193 167 155 158 161 160 154 154 152 167 186 177 203
119 123 121 122 141 119 99 83 87 57 60 47 31 7 2 358 344 340 343 15 30 327 313 313 307 284 300 194 198 163 144 144 148 152 148 153 159 153 144 156 173 195 197 195
161 177 172 150 130 121 116 106 97 94 61 27 326 50 10 349 335 343 339 341 339 314 305 305 290 304 277 206 185 171 158 149 144 137 149 153 151 152 147 167 186 199 210 191
129 136 112 141 136 129 116 115 120 140 170 215 7 360 17 353 305 308 336 342 329 315 302 283 285 287 277 215 178 152 147 143 143 148 147 152 154 150 149 172 188 202 211 193
147 147 138 133 131 124 127 134 131 181 323 62 89 219 322 285 303 314 322 314 311 304 296 332 313 301 293 286 151 128 134 132 130 135 143 141 136 142 161 179 194 216 189 167
157 142 130 122 118 125 130 128 114 91 101 100 146 239 280 267 286 291 298 286 272 270 300 301 295 308 335 80 93 116 129 137 139 142 145 144 150 167 170 195 210 182 175 177
138 126 126 130 135 126 120 113 111 261 272 194 199 244 255 281 284 284 270 298 270 270 304 318 318 312 183 145 87 109 120 127 134 142 146 151 161 166 181 205 179 167 174 170
134 138 134 128 130 142 170 174 199 201 217 230 243 274 287 282 270 257 240 246 271 305 313 288 297 288 166 131 108 111 116 119 134 141 153 161 168 178 195 184 175 182 185 189
123 131 137 144 153 178 178 213 204 202 208 223 224 245 243 248 252 250 290 244 262 252 337 324 48 129 118 101 116 121 123 128 126 138 154 164 169 171 158 169 184 180 188 193
135 150 168 149 135 150 206 249 214 208 191 208 210 216 214 241 294 257 213 139 94 72 76 52 157 126 100 93 96 98 100 111 128 138 147 152 159 153 149 162 169 180 160 169
123 126 128 147 165 194 214 241 230 195 191 210 209 190 195 211 170 240 119 134 128 103 69 69 115 99 107 106 118 113 123 127 131 141 143 143 153 158 171 167 168 174 182 199
122 140 165 166 178 192 204 195 212 220 201 224 224 176 183 169 135 133 130 175 123 130 108 84 80 107 126 122 125 129 130 134 139 139 139 150 152 161 173 168 171 185 206 218
133 127 141 161 225 217 213 211 213 230 196 168 207 194 175 153 141 138 157 163 158 140 126 145 134 145 131 128 126 132 134 139 139 130 130 137 143 163 166 174 195 213 236 221